#timestamp,LO_Frequency,Hit,StdDev 
1644357615.3,286046998.8,N
1644357635.1,286047001.1,N
1644357636.0,286047001.1,N
1644357655.8,286047000.9,N
1644357675.7,286047002.7,N
1644357695.5,286047004.4,N
1644357715.3,286047004.1,N
1644357735.2,286047004.1,N
1644357755.0,286047002.4,N
1644357755.9,286047002.4,N
1644357775.8,286047001.6,N
1644357795.6,286047004.2,N
1644357815.4,286047001.8,N
1644357835.3,286047002.8,N
1644357855.1,286047001.7,N
1644357875.8,286047001.8,N
1644357895.7,286047001.9,N
1644357915.5,286047002.6,N
1644357935.4,286047003.1,N
1644357955.2,286047003.6,N
1644357975.0,286047001.7,N
1644357975.9,286047001.7,N
1644357995.8,286047002.3,N
1644358015.6,286046998.4,N
1644358035.4,286046997.4,N
1644358055.3,286046998.7,N
1644358075.1,286046999.3,N
1644358095.9,286046998.4,N
1644358115.7,286047000.6,N
1644358135.5,286047000.5,N
1644358155.4,286047000.7,N
1644358175.2,286047002.0,N
1644358195.0,286047003.7,N
1644358195.9,286047003.7,N
1644358215.8,286047003.5,N
1644358235.6,286047001.5,N
1644358255.5,286047004.4,N
1644358275.3,286047001.9,N
1644358295.1,286047000.2,N
1644358315.9,286047002.8,N
1644358335.7,286047004.0,N
1644358355.5,286047002.4,N
1644358375.4,286047001.2,N
1644358395.2,286047000.8,N
1644358415.1,286047013.5,Y
1644358416.0,286047013.5,P
1644358435.8,286047020.2,P
1644358455.6,286047014.5,N
1644358475.5,286047009.8,N
1644358495.3,286047008.5,N
1644358515.2,286047004.7,N
1644358535.9,286047004.1,N
1644358555.7,286047004.0,N
1644358575.6,286047002.1,N
1644358595.4,286047000.5,N
1644358615.2,286046998.5,N
1644358635.1,286047000.2,N
1644358636.0,286047000.2,N
1644358655.8,286047000.6,N
1644358675.7,286046997.3,N
1644358695.5,286046995.1,N
1644358715.3,286046996.2,N
1644358735.2,286046995.1,N
1644358755.0,286046993.8,N
1644358755.9,286046993.8,N
1644358775.7,286046993.9,N
1644358795.6,286046994.5,N
1644358815.4,286046994.8,N
1644358835.3,286046995.7,N
1644358855.1,286046998.0,N
1644358856.0,286046998.0,N
1644358875.8,286046995.7,N
1644358895.7,286046997.2,N
1644358915.5,286046999.2,N
1644358935.3,286046997.7,N
1644358955.2,286046998.0,N
1644358975.0,286046997.5,N
1644358975.9,286046997.5,N
1644358995.8,286046997.9,N
1644359015.6,286046995.5,N
1644359035.4,286046994.6,N
1644359055.3,286046994.1,N
1644359075.1,286046995.9,N
1644359095.9,286046996.1,N
1644359115.7,286046993.5,Y
1644359135.5,286047000.0,P
1644359155.4,286047002.1,N
1644359175.2,286046998.9,N
1644359195.0,286046995.3,N
1644359195.9,286046995.3,N
1644359215.8,286046997.9,N
1644359235.6,286046997.6,N
1644359255.5,286046997.9,N
1644359275.3,286046995.3,N
1644359295.1,286046995.0,N
1644359315.9,286046997.9,N
1644359335.7,286046997.7,N
1644359355.5,286046999.4,N
1644359375.4,286046996.5,N
1644359395.2,286046995.1,N
1644359415.1,286046995.4,N
1644359416.0,286046995.4,N
1644359435.8,286046996.4,N
1644359455.6,286046995.6,N
1644359475.5,286046997.8,N
1644359495.3,286046995.2,N
1644359515.1,286046994.2,Y
1644359535.9,286046994.9,P
1644359555.7,286046996.2,P
1644359575.6,286046995.1,P
1644359595.4,286046999.1,N
1644359615.2,286047000.6,N
1644359635.1,286047000.2,N
1644359636.0,286047000.2,N
1644359655.8,286047003.9,N
1644359675.6,286047004.4,N
1644359695.5,286047002.5,N
1644359715.3,286047002.4,N
1644359735.2,286047004.0,N
1644359755.9,286047002.5,N
1644359775.7,286047002.4,N
1644359795.6,286047003.9,N
1644359815.4,286047003.6,N
1644359835.2,286047002.9,N
1644359855.1,286047003.8,N
1644359856.0,286047003.8,N
1644359875.8,286047002.0,N
1644359895.7,286046999.8,N
1644359915.5,286047004.2,N
1644359935.3,286047002.0,N
1644359955.2,286047003.5,N
1644359975.0,286047004.1,N
1644359975.9,286047004.1,N
1644359995.8,286047004.2,N
1644360015.6,286047000.2,N
1644360035.4,286047001.2,N
1644360055.3,286047000.8,N
1644360075.1,286047000.7,N
1644360095.8,286047000.0,N
1644360115.7,286047002.6,N
1644360135.5,286047003.3,N
1644360155.3,286047003.1,N
1644360175.2,286047002.9,N
1644360195.0,286047005.6,Y
1644360195.9,286047005.6,P
1644360215.8,286047002.4,N
1644360235.6,286046999.4,N
1644360285.5,286046999.1,E
1644360295.4,286046999.4,N
1644360315.2,286046998.4,P
1644360335.1,286046998.8,N
1644360336.0,286046998.8,N
1644360355.8,286046998.1,Y
1644360375.6,286046999.8,P
1644360395.5,286047002.4,P
1644360415.3,286047002.7,N
1644360435.2,286047002.8,N
1644360455.9,286047002.1,N
1644360475.7,286047003.9,N
1644360495.6,286047004.0,N
1644360515.4,286047001.8,N
1644360535.2,286046999.7,N
1644360555.1,286047004.2,N
1644360556.0,286047004.2,N
1644360575.8,286047004.2,N
1644360595.7,286047001.7,N
1644360615.5,286047002.6,N
1644360635.3,286046999.8,N
1644360655.2,286047001.1,N
1644360675.0,286047000.6,N
1644360675.9,286047000.6,N
1644360695.8,286047001.6,N
1644360715.6,286047005.8,Y
1644360735.4,286047000.0,P
1644360755.3,286046996.8,P
1644360775.1,286046995.2,N
1644360795.8,286046997.8,N
1644360815.7,286046996.9,N
1644360835.5,286046996.7,N
1644360855.4,286046999.1,N
1644360875.2,286046998.1,N
1644360895.0,286047000.6,N
1644360895.9,286047000.6,N
1644360915.8,286047002.6,N
1644360935.6,286046998.1,N
1644360955.4,286046998.3,N
1644360975.3,286047001.6,N
1644360995.1,286047002.8,N
1644361015.9,286046999.9,N
1644361035.7,286047002.8,N
1644361055.5,286047000.5,N
1644361075.4,286046998.7,N
1644361095.2,286046998.5,N
1644361115.0,286046998.3,N
1644361115.9,286046998.3,N
1644361135.8,286047001.1,N
1644361155.6,286047000.7,N
1644361175.5,286047002.3,N
1644361195.3,286047000.8,N
